map of GRJ home
GRJ - Airport
Location
City:  George, Western Cape, South Africa
ICAO:FAGG
IATA:GRJ

Details
Type:Airport (Aerodrome, Airfield)
Use:Public/Civil
Latitude:3400'20"S (-34.005552)
Longitude:2222'44"E (22.378889)
Datum:WGS 1984
Elevation:648 ft (198 m)
Variation:26.94W (WMM2015 magnetic declination)
-0.15 annual change
Runways:2
Longest:6562 × 148 ft (2000 × 45 m), paved

Time
Time Zone:UTC+2
Local Time:

Weather
METAR:FAGG 201000Z 13011KT 9999 FEW014 BKN020 18/15 Q1024
TAF:FAGG 201000Z 2012/2112 12012KT 9999 SCT020
FM201700 VRB02KT 9999 FEW010 PROB30
TEMPO 2018/2024 BKN008
BECMG 2100/2102 01006KT
BECMG 2109/2111 17008KT TX28/2109Z TN11/2106Z

Related Locations
Nearby:
Farthest:HPV: 11610 mi / 18685 km
Hanalei [Princeville Airport], Kauai, HI, US

Find:

   beyond  
but within

Other Information
Maps:
NOTAMs:
Links:
Sources:

  
flag of South Africa
flag of Western Cape
  

Sectional Chart

Flight Planning
at skyvector.com

Satellite Image

Google Maps Satellite view

 

Copyright © 2004-2017 Karl L. Swartz. All rights reserved.
The Great Circle Mapper name and logo are trademarks of the Great Circle Mapper.
All other trademarks mentioned herein belong to their respective owners.
Please see credits for attibutions and further copyright information.

  Follow gcmap on Facebook Follow gcmap on Twitter Follow gcmap on Google+ GCmap on LinkedIn

hCard Microformat

Geo Microformat